Narmada Exp Psg 18234 Schedule, Route, Map - Bilaspur to Indore train
Must See India - Best Travel Guide to India
Home   |   Login   |   Register   |   Contact Us
 

Narmada Exp Psg (18234)

Print
     

Service Days:

All Days

Classes:

AC 1st Class (1A), AC 2 Tier (2A), AC 3 Tier (3A), Sleeper (SL)

Duration:

24h 55m

Station Arrival Departure Stop Time Distance Day
1 Bilaspur (BSP) starts 09:55 am Starts 0 km 1
2 Usalapur (USL) 10:08 am 10:10 am 2 min 9 km 1
3 Ghutku (GTK) 10:15 am 10:16 am 1 min 16 km 1
4 Kalmitar (KLTR) 10:24 am 10:25 am 1 min 24 km 1
5 Kargi Road (KGB) 10:37 am 10:38 am 1 min 32 km 1
6 Salkaroad (SLKR) 10:47 am 10:48 am 1 min 40 km 1
7 Belgahna (BIG) 10:59 am 11:00 am 1 min 48 km 1
8 Tenganmada (TGQ) 11:09 am 11:10 am 1 min 58 km 1
9 Khongsara (KGS) 11:19 am 11:20 am 1 min 66 km 1
10 Bhanwar Tonk (BHTK) 11:36 am 11:37 am 1 min 79 km 1
11 Khodri (KOI) 11:53 am 11:54 am 1 min 90 km 1
12 Pendra Road (PND) 12:15 pm 12:20 pm 5 min 101 km 1
13 Harri (HRB) 12:26 pm 12:27 pm 1 min 109 km 1
14 Venkatnagra (VKR) 12:36 pm 12:37 pm 1 min 120 km 1
15 Nigaura (NIQ) 12:45 pm 12:46 pm 1 min 128 km 1
16 Jaithari (JTI) 12:55 pm 12:56 pm 1 min 138 km 1
17 Chhulha (CLF) 01:04 pm 01:05 pm 1 min 146 km 1
18 Anuppur Jn (APR) 01:20 pm 01:25 pm 5 min 151 km 1
19 Amlai (AAL) 01:40 pm 01:41 pm 1 min 164 km 1
20 Burhar (BUH) 01:50 pm 01:51 pm 1 min 173 km 1
21 Singhpur (SNGP) 02:04 pm 02:05 pm 1 min 186 km 1
22 Shahdol (SDL) 02:50 pm 03:00 pm 10 min 192 km 1
23 Birsinghpur (BRS) 03:34 pm 03:35 pm 1 min 230 km 1
24 Nowrozabad (NRZB) 03:43 pm 03:44 pm 1 min 237 km 1
25 Karkeli (KKI) 03:54 pm 03:55 pm 1 min 247 km 1
26 Umaria (UMR) 04:10 pm 04:15 pm 5 min 259 km 1
27 Chandia Road (CHD) 04:30 pm 04:31 pm 1 min 278 km 1
28 Rupaund (RPD) 04:54 pm 04:55 pm 1 min 295 km 1
29 Jhalwara (JLW) 05:41 pm 05:42 pm 1 min 307 km 1
30 Katni (KTE) 06:15 pm 06:35 pm 20 min 319 km 1
31 Niwar (NWR) 06:51 pm 06:52 pm 1 min 333 km 1
32 Sansarpur (SNRR) 07:00 pm 07:01 pm 1 min 340 km 1
33 Sleemanabad Rd (SBD) 07:09 pm 07:10 pm 1 min 347 km 1
34 Dundi (DDCE) 07:19 pm 07:20 pm 1 min 357 km 1
35 Sihora Road (SHR) 07:30 pm 07:32 pm 2 min 372 km 1
36 Gosalpur (GSPR) 07:46 pm 07:47 pm 1 min 383 km 1
37 Deori (DOE) 08:02 pm 08:03 pm 1 min 393 km 1
38 Adhartal (ADTL) 08:19 pm 08:20 pm 1 min 402 km 1
39 Jabalpur (JBP) 08:50 pm 09:00 pm 10 min 410 km 1
40 Madan Mahal (MML) 09:09 pm 09:11 pm 2 min 414 km 1
41 Shridham (SRID) 09:45 pm 09:47 pm 2 min 463 km 1
42 Narsinghpur (NU) 10:26 pm 10:28 pm 2 min 494 km 1
43 Kareli (KY) 10:44 pm 10:45 pm 1 min 510 km 1
44 Gadarwara (GAR) 11:06 pm 11:07 pm 1 min 538 km 1
45 Salichauka Road (SCKR) 11:16 pm 11:17 pm 1 min 552 km 1
46 Pipariya (PPI) 12:02 am 12:04 am 2 min 588 km 2
47 Sohagpur (SGP) 12:20 am 12:21 am 1 min 606 km 2
48 Bagra Tawa (BGTA) 12:57 am 12:58 am 1 min 629 km 2
49 Itarsi (ET) 01:50 am 02:10 am 20 min 655 km 2
50 Hoshangabad (HBD) 02:24 am 02:25 am 1 min 673 km 2
51 Obaidulla Ganj (ODG) 03:14 am 03:15 am 1 min 711 km 2
52 Mandi Dip (MDDP) 03:29 am 03:30 am 1 min 725 km 2
53 Habibganj (HBJ) 03:47 am 03:49 am 2 min 741 km 2
54 Bhopal (BPL) 04:25 am 04:35 am 10 min 747 km 2
55 Bairagarh (BIH) 04:46 am 04:47 am 1 min 757 km 2
56 Sehore (SEH) 05:12 am 05:13 am 1 min 786 km 2
57 Kalapipal (KPP) 05:38 am 05:39 am 1 min 815 km 2
58 Shujalpur (SJP) 05:52 am 05:53 am 1 min 827 km 2
59 Akodia (AKD) 06:06 am 06:07 am 1 min 840 km 2
60 Kali Sindh (KSH) 06:22 am 06:23 am 1 min 858 km 2
61 Berchha (BCH) 06:35 am 06:36 am 1 min 870 km 2
62 Maksi (MKC) 06:57 am 06:59 am 2 min 889 km 2
63 Tarana Road (TAN) 07:08 am 07:09 am 1 min 899 km 2
64 Ujjain (UJN) 08:10 am 08:25 am 15 min 930 km 2
65 Vikramnagar (VRG) 08:39 am 08:40 am 1 min 936 km 2
66 Karchha (KDHA) 08:56 am 08:57 am 1 min 948 km 2
67 Undasa Madhawpu (UDM) 09:14 am 09:15 am 1 min 955 km 2
68 Naranjipur (NRGR) 09:23 am 09:24 am 1 min 961 km 2
69 Dewas (DWX) 09:48 am 09:50 am 2 min 971 km 2
70 Barlai (BLAX) 10:03 am 10:04 am 1 min 985 km 2
71 Mangliya Gaon (MGG) 10:15 am 10:16 am 1 min 995 km 2
72 Lakshmibai Ngr (LMNR) 10:41 am 10:42 am 1 min 1,006 km 2
73 Indore (INDB) 10:50 am ends Ends 1,010 km 2

 

 Click to view map

You can drag the map with your mouse, and double-click to zoom.

People who viewed this page also viewed

 
Alibag honeymoon package from Bangalore
 
Corbett National Park honeymoon packages from Bangalore
 
Gulmarg packages from Kolkata
 
Hotels in Pune
 
Kalimpong packages from Delhi
 
Kasauli honeymoon packages from Mumbai
 
Madhya Pradesh packages from Pune
 
Manipur packages from Chennai
 
Tirupati package tour
 
Wayanad packages from Pune
 
darjeeling gangtok tour package
 
kerala tour packages from kolkata
 

Destinations

 
 

More

 
debug_temp: train_route : train:1134:Narmada Exp Psg:Train